STARLINK-32075, 60345

Orbit data source: Space-Track

STARLINK-32075, 60345 is a payload satellite owned by SpaceX/Seattle (US) in LEO that was launched on Fri, 02 Aug 2024 UTC via an FALCON 9 launch vehicle from the Air Force Eastern Test Range (AFETR). Payload-class satellites include a variety of spacecraft equipped with specific instruments for various scientific and technological missions. These include communications satellites like Starlink; space stations such as the ISS; scientific satellites like the Hubble; Earth observation satellites from companies like Planet Labs, Umbra, and HawkEye 360; GPS; miniature CubeSats for education and research; and military/defense satellites.

Loading next visibility...
Identifier
60345, 2024-136S
Orbit
LEO
Country
Flag of USUS
Related business
Manufacturer
SpaceX/Seattle
Mission
Operational Commercial Communications
Bus & Motor
STARLINK V2M, Unknown motor
Mass
730 kg wet, ~700 kg dry
Launch date (UTC)
2024-08-02 (2 years ago)
Launch vehicle
FALCON 9
Launch site
Air Force Eastern Test Range (AFETR)
Object type
Payload
Rocket body
Debris
Shape & HBR
Box + 2 Pan, 17.7 m
Radar Cross Section
33.884 m², Large (>1 m²)

Expand to show TLE details & history
Last TLE update: 1 day ago

TLE from 1 day ago
0 STARLINK-32075
1 60345U 24136S   26124.12081520  .00000664  00000-0  34545-4 0  9999
2 60345  53.1600 178.0232 0001194  98.3090 261.8046 15.30194283 98158
Epoch: 2026-05-04T02:53Z
TLE epoch observation values (Epoch: 2026-05-04T02:53:58.433Z)
Latitude
-0.00003°
Longitude
-87.48486°
Altitude
476.249 km
Speed
7.629 km/s
True Right ascension
11h 52m 05s
True Declination
0° 00' 00"
Sunlit
Object was in full shadow at epoch
Visualization orbit readout
Latitude
Unknown
Longitude
Unknown
Altitude
Unknown
Speed
Unknown
Apparent Right ascension
Unknown
Apparent Declination
Unknown
Sunlit
N/A
Visualization observer readout
Local Sidereal Time
17:02:47
Azimuth
Unknown
Elevation
Unknown
Doppler factor
Unknown
Orbital elements
Apogee altitude
476.307 km
Perigee altitude
474.67 km
Semi-major axis
6,853.626 km
Eccentricity
0.00012
Inclination
53.16°
RAAN
178.0232°
Arg. of periapsis
98.309°
True anomaly
261.79106°
Mean anomaly
261.8046°
Eccentric anomaly
261.79783°
Mean motion
3.82527 °/min
Orbital period
94.11 mins
BSTAR
0.000034545
Loading maneuver chart data...
Computing Atmospheric mass density...
Loading historical data...
Loading historical data...
Loading historical data...
Loading historical data...
Loading historical data...
Loading historical data...
Loading historical data...

Documentation

Showing up to 5 results
|